Regional Weather Roundup
Issued by NWS

Home | Current Version | Previous Version | Graphics & Text | Print | Product List | Glossary On
Versions: 1 2 3 4 5 6 7 8 9 10 11 12 13 14 15 16 17 18 19 20 21 22 23 24 25 26 27 28 29 30 31 32 33 34 35 36 37 38 39 40 41 42 43 44 45 46 47 48 49 50
000
ASUS43 KMKX 050000
RWRWI

WISCONSIN REGIONAL WEATHER ROUNDUP
NATIONAL WEATHER SERVICE MILWAUKEE/SULLIVAN WI
700 PM CDT TUE AUG 04 2015

NOTE: "FAIR" INDICATES FEW OR NO CLOUDS BELOW 12,000 FEET WITH NO
SIGNIFICANT WEATHER AND/OR OBSTRUCTIONS TO VISIBILITY.

WIZ001-002-006>008-014>016-023>028-050100-
NORTHWEST WISCONSIN

CITY           SKY/WX    TMP DP  RH WIND       PRES   REMARKS
SUPERIOR ARPT  MOSUNNY   64  54  69 NE6       29.99R
ASHLAND        SUNNY     67  54  63 E7        30.01R
6HR MIN TEMP:  67; 6HR MAX TEMP:  75;

HAYWARD        PTSUNNY   72  52  49 NE12      29.99R
6HR MIN TEMP:  71; 6HR MAX TEMP:  77;

SIREN          MOSUNNY   75  50  41 N5        29.98S
CUMBERLAND     PTSUNNY   72  50  46 N9        29.98S
RICE LAKE      PTSUNNY   74  54  50 NW3       29.99S
CHETEK         PTSUNNY   76  56  49 CALM      29.97S
LADYSMITH      CLOUDY    72  55  54 W3        30.00S
EAU CLAIRE     NOT AVBL
MENOMONIE      SUNNY     79  49  35 NW9       29.97S
NEW RICHMOND   MOSUNNY   77  53  42 NW5       29.98S
OSCEOLA        MOSUNNY   77  55  46 N6        30.00R
$$

WIZ003>005-009-010-017-018-050100-
NORTH CENTRAL WISCONSIN

CITY           SKY/WX    TMP DP  RH WIND       PRES   REMARKS
MANITOWISH WTR PTSUNNY   65  51  61 N8        30.01R
ARBOR VITAE    PTSUNNY   67  52  57 N9        30.00R
WOODRUFF       PTSUNNY   67  52  57 N9        30.00R
RHINELANDER    PTSUNNY   67  51  56 N3        30.00R
6HR MIN TEMP:  67; 6HR MAX TEMP:  72;

EAGLE RIVER    PTSUNNY   66  47  49 N9        29.99S
LAND O LAKES   PTSUNNY   65  49  56 N8        30.01S
PHILLIPS       CLOUDY    67  54  63 CALM      29.99S
6HR MIN TEMP:  67; 6HR MAX TEMP:  72;

TOMAHAWK       PTSUNNY   67  53  60 CALM      29.99S
MEDFORD        CLOUDY    70  55  58 NW5       29.99S
MERRILL        NOT AVBL
$$

WIZ029-030-035-036-043>047-050100-
CENTRAL WISCONSIN

CITY           SKY/WX    TMP DP  RH WIND       PRES   REMARKS
WAUSAU         PTSUNNY   74  51  44 NW7       29.96S
6HR MIN TEMP:  72; 6HR MAX TEMP:  77;

MOSINEE        MOSUNNY   72  54  53 NW9       29.99S
MARSHFIELD     SUNNY     74  51  44 N10       29.97F
6HR MIN TEMP:  72; 6HR MAX TEMP:  78;

STEVENS POINT  MOSUNNY   72  51  47 NW7       29.97F
WAUPACA        SUNNY     78  51  38 NW9       29.96S
WAUTOMA        NOT AVBL
WISC RAPIDS    MOSUNNY   76  49  38 NW8       29.98S
6HR MIN TEMP:  74; 6HR MAX TEMP:  78;

CAMP DOUGLAS   NOT AVBL
$$

WIZ011>013-019>022-031-037>040-048>050-050100-
NORTHEAST WISCONSIN

CITY           SKY/WX    TMP DP  RH WIND       PRES   REMARKS
ANTIGO         CLOUDY    67  53  59 N7        29.98F
SHAWANO        CLOUDY    74  53  47 NW5       29.95S
OCONTO         PTSUNNY   67  60  78 NE6       29.94S
STURGEON BAY   CLOUDY    66  55  68 E6        29.97F
6HR MIN TEMP:  66; 6HR MAX TEMP:  73;

GREEN BAY      MOSUNNY   75  57  53 NW5       29.94S
6HR MIN TEMP:  73; 6HR MAX TEMP:  79;

MANITOWOC      NOT AVBL
APPLETON       MOSUNNY   73  50  43 N10       29.96S
CLINTONVILLE   PTSUNNY   73  50  43 NW7       29.95S
OSHKOSH        SUNNY     75  53  46 NW10      29.94F
6HR MIN TEMP:  74; 6HR MAX TEMP:  78;

$$

WIZ032>034-041-042-053>061-050100-
SOUTHWEST WISCONSIN

CITY           SKY/WX    TMP DP  RH WIND       PRES   REMARKS
LA CROSSE      MOSUNNY   79  52  38 W8        29.96S
6HR MIN TEMP:  78; 6HR MAX TEMP:  83;

SPARTA         SUNNY     78  48  34 NW7       29.97S
VIROQUA        SUNNY     74  55  49 N3        30.00R
BOSCOBEL       MOSUNNY   79  54  41 N5        29.97R
6HR MIN TEMP:  79; 6HR MAX TEMP:  83;

PRAIRIE DU CHI PTSUNNY   77  49  37 N3        29.97R
PLATTEVILLE    PTSUNNY   74  56  54 N6        29.98R
$$

WIZ056-057-062-063-064-067-068-050100-
SOUTH CENTRAL WISCONSIN

CITY           SKY/WX    TMP DP  RH WIND       PRES   REMARKS
REEDSBURG      SUNNY     77  51  41 W9        29.96S
BARABOO/DELLS  MOSUNNY   77  47  34 NW7       29.96S
LONE ROCK      NOT AVBL
MINERAL POINT  MOSUNNY   77  50  38 NW3       29.98R
MADISON        MOSUNNY   77  52  41 NW7       29.96S
6HR MIN TEMP:  75; 6HR MAX TEMP:  79;

MIDDLETON      MOSUNNY   77  50  38 NW3       29.97S
WATERTOWN      MOSUNNY   75  55  49 NW6       29.95F
MONROE         PTSUNNY   73  55  53 NW5       29.97S
JANESVILLE     MOSUNNY   77  50  38 NW6       29.95F
$$

WIZ051-052-058>065-066-070>072-050100-
SOUTHEAST WISCONSIN

CITY           SKY/WX    TMP DP  RH WIND       PRES   REMARKS
MILWAUKEE      PTSUNNY   72  57  59 SE9       29.95S
6HR MIN TEMP:  72; 6HR MAX TEMP:  80;

WAUKESHA       MOSUNNY   73  50  43 NW7       29.96F
MILWAUKEE/TIMM SUNNY     77  46  33 NW8       29.95S
RACINE         PTSUNNY   73  57  57 SE8       29.97S
6HR MIN TEMP:  72; 6HR MAX TEMP:  80;

BURLINGTON     MOSUNNY   75  49  39 W5        29.96S
KENOSHA        MOSUNNY   74  57  55 E6        29.96S
6HR MIN TEMP:  74; 6HR MAX TEMP:  79;

FOND DU LAC    SUNNY     76  53  44 N9        29.95S
6HR MIN TEMP:  74; 6HR MAX TEMP:  80;

SHEBOYGAN      PTSUNNY   76  55  48 N9        29.94S
6HR MIN TEMP:  73; 6HR MAX TEMP:  78;

WEST BEND      SUNNY     73  50  43 NW7       29.95S
JUNEAU         MOSUNNY   75  54  48 NW3       29.96S
$$

LSZ147-162-050100-
LAKE SUPERIOR

STATION/POSITION TIME  TEMP    WIND        PRES    WAVE
                       AIR SEA DIR/SP/G            HT/PER
                 (UTC) (F)     (DEG/KT/KT) (MB)    (FT/S)
W MID LAKE BUOY  2250   58 58  100/  4/  4 1016.1S   0
DEVILS ISLAND    2300   63      60/  2/  2 1015.9S
PORT WING        2300   70      50/  9/ 11 1015.9R
SAXON HARBOR     2340   66      40/  5/  7 1015.9R
$$

LMZ867-665-643>646-050100-
LAKE MICHIGAN

STATION/POSITION TIME  TEMP    WIND        PRES    WAVE
                       AIR SEA DIR/SP/G            HT/PER
                 (UTC) (F)     (DEG/KT/KT) (MB)    (FT/S)
CHAMBERS ISLAND  2300   67      40/  7/  8 1014.2R
N MID LAKE BUOY  2250   65 70  220/  2/  2 1013.9F   0
NORTHPORT PIER   2300   65     100/  4/  7 1014.2R
SISTER BAY       2318   68      20/  6/ 10   N/A
ALGOMA LAKESHORE 2342           60/  6/  7   N/A
KEWAUNEE LAKESHO 2300   63     180/ 10/ 11 1013.3F
SHEBOYGAN LAKESH 2300   76     280/ 12/ 15 1013.8F
PORT WASHINGTON  2300   80     300/  9/ 13 1014.2S
ATWATER BUOY     2300   69 59   70/  6/  6 1015.3F
MILWAUKEE LAKESH 2300   77     320/  5/  7   N/A
KENOSHA   LAKESH 2300   71     110/ 11/ 11 1013.9S
$$

TC  - TEMPERATURE IN CELSIUS
VSB - VISIBILITY IN STATUTE MILES
WCI - WIND CHILL INDEX
HX  - HEAT INDEX




USA.gov is the U.S. government's official web portal to all federal, state and local government web resources and services.